Volver al catálogo

STARLINK-30949

ActivoComunicacionesVLEO
NORAD 58415·PAYLOAD·🇺🇸 United States

Lanzado Nov 22, 2023 desde Cape Canaveral Space Force Station

Loading…

Próximos Pases (próximas 24 horas)

TLE

ActualizadoSource: CelesTrak SupGP

Época: Sep 14, 2026, 21:03 UTC

1 58415C 23180P   26257.87756944  .00042632  00000+0  15444-2 0  2572
2 58415  43.0031  64.1509 0001317 271.8315 285.8910 15.27552466    17

Sigue STARLINK-30949 en tiempo real con AllMySat

Download on the App Store